Regional Weather Roundup
Issued by NWS

Home | Current Version | Previous Version | Graphics & Text | Print | Product List | Glossary On
Versions: 1 2 3 4 5 6 7 8 9 10 11 12 13 14 15 16 17 18 19 20 21 22 23 24 25 26 27 28 29 30 31 32 33 34 35 36 37 38 39 40 41 42 43 44 45 46 47 48 49 50
000
ASUS44 KMEG 040000
RWRTN
TENNESSEE HOURLY STATE WEATHER ROUNDUP
NATIONAL WEATHER SERVICE MEMPHIS TN
700 PM CDT THU SEP 03 2015

TNZ002-004-019-021-049-052-054-088>092-040100-
WEST TENNESSEE

CITY           SKY/WX    TMP DP  RH WIND       PRES   REMARKS
MEMPHIS INTL   MOCLDY    89  69  51 W5        29.92S HX  93
NWS MEMPHIS      N/A     87 N/A N/A MISG        N/A
JACKSON        CLEAR     86  70  58 NW5       29.92S HX  90
DYERSBURG      CLEAR     88  72  58 CALM      29.93S HX  94
UNION CITY     CLEAR     84  72  65 NW5       29.92S
PARIS          CLEAR     82  70  65 CALM      29.94S
LEXINGTON      CLEAR     82  75  78 CALM      29.92S
$$

TNZ008-025-027-028-033-062-065-066-040100-
NORTH MIDDLE TENNESSEE

CITY           SKY/WX    TMP DP  RH WIND       PRES   REMARKS
NASHVILLE      PTCLDY    87  63  44 SE3       29.93S
CLARKSVILLE    CLOUDY    85  67  54 SE10G16   29.94R
COOKEVILLE     CLEAR     81  72  74 CALM      29.96S
CROSSVILLE     CLEAR     76  67  73 CALM      30.02S
$$

TNZ061-075-076-078-094-096-097-040100-
SOUTH MIDDLE TENNESSEE

CITY           SKY/WX    TMP DP  RH WIND       PRES   REMARKS
FAYETTEVILLE   CLEAR     81  70  69 CALM      29.96S
TULLAHOMA      CLEAR     82  70  65 CALM      29.97S
WINCHESTER     MOCLDY    79  72  78 SE3       29.96S
COLUMBIA       CLEAR     82  72  69 SW3       29.93S
SHELBYVILLE    MOCLDY    84  73  70 CALM      29.95F HX  91
$$

TNZ017-018-042-046-047-040100-
NORTHEAST TENNESSEE

CITY           SKY/WX    TMP DP  RH WIND       PRES   REMARKS
TRI CITIES     PTCLDY    79  68  69 N3        29.99R
ELIZABETHTON   MOCLDY    73  66  78 CALM      30.00R
$$

TNZ012-013-036-069-073-074-040100-
CENTRAL EAST TENNESSEE

CITY           SKY/WX    TMP DP  RH WIND       PRES   REMARKS
KNOXVILLE      PTCLDY    83  65  54 NE6       29.94S
OAK RIDGE      CLEAR     84  69  60 CALM      29.96S
GATLINBURG     CLEAR     84  63  48 CALM      29.95R
$$

TNZ083-085-099-040100-
SOUTHEAST TENNESSEE

CITY           SKY/WX    TMP DP  RH WIND       PRES   REMARKS
CHATTANOOGA    MOCLDY    84  68  58 NW5       29.94S
$$

SKY/WX REPORTED AS FAIR MEANS FEW OR NO CLOUDS BELOW
12 THOUSAND FEET.




USA.gov is the U.S. government's official web portal to all federal, state and local government web resources and services.